Weather in Kryshtopivka

Ukraine / Kharkiv Region     48°40′15″N   36°17′44″E
temp.,
°C
wind,
m/s
gust,
m/s
humid.,
%
clouds,
%
prec.,
mm/h
press.,
hPa
HPBL,
m
29 june, wed
wed2900:00+20ne49785 0.0 1015140
03:00+19ne4118929 0.0 1016233
06:00+19ne510915 0.3 1016275
09:00+25ne57675 0.3 1016634
12:00+28ene6648100 0.0 10161524
15:00+29ene554199 0.0 10161927
18:00+28ene554692 0.0 10151684
21:00+21ene511560 0.0 1016290
30 june, thu
thu3000:00+17e51257100 0.0 1017242
03:00+16e496318 0.0 1017170
06:00+17e376492 0.0 1016199
09:00+20ene5654100 0.0 1016416
12:00+17ne61068100 0.1 1017418
15:00+15ne5990100 1.9 1017390
18:00+18ene57740 0.9 1016551
21:00+15ne36880 0.9 101696
1 july, fri
fri100:00+13ne35871 0.0 101770
03:00+13nne47925 0.0 1017111
06:00+15ne36870 0.0 1017142
09:00+21ne45610 0.0 1017806
12:00+25nne66411 0.0 10172236
15:00+25nne67350 0.0 10172361
18:00+25nne56400 0.0 10172248
21:00+18ne410610 0.0 1018173
2 july, sat
sat200:00+16nne47682 0.0 101999
03:00+14ne46795 0.0 102092
06:00+14ene35760 0.0 1021123
09:00+20ne45470 0.0 1021817
12:00+23ne45380 0.0 10211915
15:00+25nne45335 0.0 10202001
18:00+24nne45371 0.0 10201874
21:00+18ne11560 0.0 102011
3 july, sun
sun300:00+16wsw11601 0.0 102011
03:00+16w22677 0.0 101921
06:00+17w38685 0.0 1019170
09:00+24nnw46581 0.0 1018604
12:00+29n57423 0.0 10172212
15:00+27n5848100 0.0 10171074
18:00+29nnw57458 0.4 10161968
21:00+19nne1189100 1.7 101817